STARLINK-36981, 68148

Orbit data source: Space-Track

STARLINK-36981, 68148 is a payload satellite owned by SpaceX/Seattle (US) in SSO that was launched on Fri, 13 Mar 2026 UTC via an FALCON 9 launch vehicle from the Air Force Western Test Range (AFWTR). Payload-class satellites include a variety of spacecraft equipped with specific instruments for various scientific and technological missions. These include communications satellites like Starlink; space stations such as the ISS; scientific satellites like the Hubble; Earth observation satellites from companies like Planet Labs, Umbra, and HawkEye 360; GPS; miniature CubeSats for education and research; and military/defense satellites.

Loading next visibility...
Identifier
68148, 2026-049G
Orbit
SSO
Country
Flag of USUS
Related business
Manufacturer
SpaceX/Seattle
Mission
Operational spacecraft
Bus & Motor
STARLINK V2MO, Unknown motor
Mass
575 kg wet, ~530 kg dry
Launch date (UTC)
2026-03-13 (3 months ago)
Launch vehicle
FALCON 9
Launch site
Air Force Western Test Range (AFWTR)
Object type
Payload
Rocket body
Debris
Shape & HBR
Unknown shape, 17.7 m
Radar Cross Section
Large (>1 m²)

Expand to show TLE details & history
Last TLE update: 13 hours ago

TLE from 13 hours ago
0 STARLINK-36981
1 68148U 26049G   26171.30317595  .00013547  00000-0  42109-3 0  9997
2 68148  97.2862 192.5987 0000906  83.2847 276.8499 15.33451832 15377
Epoch: 2026-06-20T07:16Z
TLE epoch observation values (Epoch: 2026-06-20T07:16:34.402Z)
Latitude
0.00002°
Longitude
174.93562°
Altitude
468.561 km
Speed
7.632 km/s
True Right ascension
12h 50m 23s
True Declination
0° 00' 00"
Sunlit
Object was in daylight at epoch
Visualization orbit readout
Latitude
Unknown
Longitude
Unknown
Altitude
Unknown
Speed
Unknown
Apparent Right ascension
Unknown
Apparent Declination
Unknown
Sunlit
N/A
Visualization observer readout
Local Sidereal Time
07:19:29
Azimuth
Unknown
Elevation
Unknown
Doppler factor
Unknown
Orbital elements
Apogee altitude
463.085 km
Perigee altitude
461.846 km
Semi-major axis
6,840.603 km
Eccentricity
0.00009
Inclination
97.2862°
RAAN
192.5987°
Arg. of periapsis
83.2847°
True anomaly
276.83959°
Mean anomaly
276.8499°
Eccentric anomaly
276.84475°
Mean motion
3.8362 °/min
Orbital period
93.84 mins
BSTAR
0.00042109
Loading maneuver chart data...
Computing Atmospheric mass density...
Loading historical data...
Loading historical data...
Loading historical data...
Loading historical data...
Loading historical data...
Loading historical data...
Loading historical data...

Documentation

Showing up to 5 results
|